Regional Weather Roundup
Issued by NWS

Home | Current Version | Previous Version | Text Only | Print | Product List | Glossary Off
Versions: 1 2 3 4 5 6 7 8 9 10 11 12 13 14 15 16 17 18 19 20 21 22 23 24 25 26 27 28 29 30 31 32 33 34 35 36 37 38 39 40 41 42 43 44 45 46 47 48 49 50

000
ASUS44 KMEG 170400
RWRTN
TENNESSEE HOURLY STATE WEATHER ROUNDUP
NATIONAL WEATHER SERVICE MEMPHIS TN
1100 PM CDT MON OCT 16 2017

TNZ002-004-019-021-049-052-054-088>092-170500-
WEST TENNESSEE

CITY           SKY/WX    TMP DP  RH WIND       PRES   REMARKS
MEMPHIS INTL   CLEAR     54  40  59 NE8       30.30S
NWS MEMPHIS      N/A     48 N/A N/A MISG        N/A
JACKSON        CLEAR     45  44  97 CALM      30.32R
$$

TNZ008-025-027-028-033-062-065-066-170500-
NORTH MIDDLE TENNESSEE

CITY           SKY/WX    TMP DP  RH WIND       PRES   REMARKS
NASHVILLE      CLEAR     53  43  68 N5        30.32R
CLARKSVILLE    CLEAR     47  42  83 NW3       30.32S
SMYRNA         CLEAR     52  42  69 NE6       30.32S
CROSSVILLE     CLEAR     45  38  76 NE5       30.31S
$$

TNZ061-075-076-078-094-096-097-170500-
SOUTH MIDDLE TENNESSEE

CITY           SKY/WX    TMP DP  RH WIND       PRES   REMARKS
$$

TNZ017-018-042-046-047-170500-
NORTHEAST TENNESSEE

CITY           SKY/WX    TMP DP  RH WIND       PRES   REMARKS
TRI CITIES     CLEAR     42  41  96 N3        30.31S
$$

TNZ012-013-036-069-073-074-170500-
CENTRAL EAST TENNESSEE

CITY           SKY/WX    TMP DP  RH WIND       PRES   REMARKS
KNOXVILLE      CLEAR     49  44  83 NE6       30.29R
OAK RIDGE      CLEAR     48  45  89 CALM      30.31F
$$

TNZ083-085-099-170500-
SOUTHEAST TENNESSEE

CITY           SKY/WX    TMP DP  RH WIND       PRES   REMARKS
CHATTANOOGA    CLEAR     54  41  61 NE6       30.28S
$$

SKY/WX REPORTED AS FAIR MEANS FEW OR NO CLOUDS BELOW
12 THOUSAND FEET.





USA.gov is the U.S. government's official web portal to all federal, state and local government web resources and services.